EW9318 Weather Reports


time (UTC)temp
F
wind
direction
speed
knots
gust
knots
rain 1hr
in
rain 24hr
in
rain mn
in
humidity
%
barometer
mb
20260503202016 53 229 7.8 15.6 0.00 0.00 0.00 62 1008.6
20260503201556 53 226 7.8 14.8 0.00 0.00 0.00 62 1008.6
20260503201015 53 219 7.0 18.2 0.00 0.00 0.00 61 1008.8
20260503200515 53 235 11.3 18.2 0.00 0.00 0.00 61 1008.8
20260503200016 53 230 8.7 19.1 0.00 0.00 0.00 61 1008.8
20260503195516 53 226 10.4 19.1 0.00 0.00 0.00 61 1008.9
20260503195015 54 236 10.4 17.4 0.00 0.00 0.00 60 1009.0
20260503194535 54 241 7.8 20.0 0.00 0.00 0.00 60 1009.1
20260503194015 54 236 12.2 20.0 0.00 0.00 0.00 59 1009.0
20260503193515 54 236 12.2 24.3 0.00 0.00 0.00 59 1009.2
20260503193016 54 245 13.9 24.3 0.00 0.00 0.00 58 1009.3
20260503192536 54 238 13.9 23.5 0.00 0.00 0.00 57 1009.4
20260503192016 55 240 16.5 23.5 0.00 0.00 0.00 56 1009.4
20260503191515 55 232 13.9 26.1 0.00 0.00 0.00 56 1009.5
20260503191016 55 243 16.5 26.1 0.00 0.00 0.00 55 1009.5
20260503190515 56 252 18.2 26.1 0.00 0.00 0.00 55 1009.4
20260503190015 56 247 18.2 26.1 0.00 0.00 0.00 54 1009.5
20260503185516 56 257 14.8 23.5 0.00 0.00 0.00 53 1009.5
20260503185035 56 241 13.9 24.3 0.00 0.00 0.00 54 1009.5
20260503184517 57 252 16.5 24.3 0.00 0.00 0.00 51 1009.5
20260503184015 58 251 15.6 27.8 0.00 0.00 0.00 51 1009.4
20260503183536 58 251 14.8 27.8 0.00 0.00 0.00 51 1009.5
20260503183016 58 228 14.8 26.1 0.00 0.00 0.00 50 1009.7
20260503182515 58 249 15.6 27.8 0.00 0.00 0.00 49 1009.5
20260503182016 58 244 18.2 27.8 0.00 0.00 0.00 49 1009.6
20260503181515 58 250 16.5 26.1 0.00 0.00 0.00 48 1009.5
20260503181016 58 256 17.4 26.1 0.00 0.00 0.00 49 1009.5
20260503180515 58 237 14.8 26.1 0.00 0.00 0.00 50 1009.7
20260503180015 58 243 16.5 29.5 0.00 0.00 0.00 49 1009.7
20260503175517 58 251 17.4 29.5 0.00 0.00 0.00 49 1009.6
20260503175015 58 247 17.4 28.7 0.00 0.00 0.00 49 1009.6
20260503174516 58 248 17.4 26.1 0.00 0.00 0.00 49 1009.7
20260503174016 58 246 16.5 29.5 0.00 0.00 0.00 50 1009.8
20260503173535 57 248 18.2 29.5 0.00 0.00 0.00 49 1009.9
20260503173015 57 257 13.9 25.2 0.00 0.00 0.00 49 1010.0
20260503172515 57 240 14.8 30.4 0.00 0.00 0.00 48 1010.1
20260503172015 57 238 15.6 30.4 0.00 0.00 0.00 49 1010.2
20260503171515 57 233 14.8 26.9 0.00 0.00 0.00 48 1010.3
20260503171035 57 244 13.9 29.5 0.00 0.00 0.00 49 1010.3
20260503170515 57 241 15.6 29.5 0.00 0.00 0.00 49 1010.3
20260503170136 57 226 13.0 22.6 0.00 0.00 0.00 49 1010.3
20260503150516 53 223 10.4 20.9 0.00 0.00 0.00 48 1011.1
20260503131017 47 227 5.2 8.7 0.00 0.00 0.00 61 1012.0
20260503130517 46 234 5.2 8.7 0.00 0.00 0.00 62 1012.0
20260503110516 38 114 0.0 2.6 0.00 0.00 0.00 72 1011.8
20260503081537 40 201 2.6 5.2 0.00 0.00 0.00 64 1012.3
20260503081017 40 204 0.9 5.2 0.00 0.00 0.00 64 1012.3
20260503080516 40 224 1.7 5.2 0.00 0.00 0.00 63 1012.3
20260503072517 41 201 2.6 7.0 0.00 0.00 0.00 61 1012.5
20260503072017 41 211 3.5 7.0 0.00 0.00 0.00 61 1012.5
20260503071536 41 217 2.6 6.1 0.00 0.00 0.00 61 1012.6
20260503071016 41 196 2.6 6.1 0.00 0.00 0.00 60 1012.6
20260503070516 41 198 1.7 6.1 0.00 0.00 0.00 60 1012.7
20260503055016 38 149 1.7 3.5 0.00 0.00 0.00 61 1013.5
20260503054516 38 147 1.7 3.5 0.00 0.00 0.00 61 1013.4
20260503054016 38 147 1.7 3.5 0.00 0.00 0.00 61 1013.5
20260503053516 38 148 0.9 3.5 0.00 0.00 0.00 61 1013.5
20260503053016 38 161 1.7 5.2 0.00 0.00 0.00 60 1013.5
20260503052516 38 150 1.7 5.2 0.00 0.00 0.00 61 1013.6
20260503052036 38 144 1.7 4.3 0.00 0.00 0.00 61 1013.7
20260503051516 38 160 0.9 3.5 0.00 0.00 0.00 61 1013.6
20260503051016 38 154 1.7 3.5 0.00 0.00 0.00 61 1013.8
20260503050516 38 145 1.7 4.3 0.00 0.00 0.00 62 1013.8
20260503050016 38 151 1.7 4.3 0.00 0.00 0.00 62 1013.9
20260503045517 38 148 0.9 4.3 0.00 0.00 0.00 63 1013.9
20260503045016 38 152 1.7 4.3 0.00 0.00 0.00 63 1014.0
20260503044516 38 138 0.9 2.6 0.00 0.00 0.00 63 1014.0
20260503044017 38 135 0.9 2.6 0.00 0.00 0.00 63 1014.0
20260503043516 38 141 0.9 3.5 0.00 0.00 0.00 64 1013.9
20260503043015 38 163 0.9 3.5 0.00 0.00 0.00 63 1014.1
20260503042516 38 151 0.9 2.6 0.00 0.00 0.00 62 1014.1
20260503042016 38 156 0.9 2.6 0.00 0.00 0.00 62 1014.1
20260503041516 38 167 0.9 3.5 0.00 0.00 0.00 62 1014.2
20260503041016 38 165 0.9 3.5 0.00 0.00 0.00 61 1014.2
20260503040516 38 150 1.7 3.5 0.00 0.00 0.00 62 1014.3
20260503040036 39 147 1.7 2.6 0.00 0.00 0.00 62 1014.3
20260503035516 39 149 0.9 2.6 0.00 0.00 0.00 61 1014.3
20260503035017 39 147 0.9 2.6 0.00 0.00 0.00 61 1014.3
20260503034516 39 156 0.9 1.7 0.00 0.00 0.00 61 1014.4
20260503034016 38 156 0.9 2.6 0.00 0.00 0.00 61 1014.4
20260503033516 38 157 0.9 2.6 0.00 0.00 0.00 62 1014.4
20260503033057 38 153 0.9 3.5 0.00 0.00 0.00 62 1014.5
20260503032536 38 164 0.9 3.5 0.00 0.00 0.00 63 1014.5
20260503032017 38 159 0.9 3.5 0.00 0.00 0.00 65 1014.6
20260503031516 38 157 0.9 3.5 0.00 0.00 0.00 65 1014.6
20260503031016 38 152 0.9 3.5 0.00 0.00 0.00 65 1014.6
20260503030516 38 165 0.9 3.5 0.00 0.00 0.00 66 1014.6
20260503030016 38 167 0.9 2.6 0.00 0.00 0.00 66 1014.7
20260503025517 38 172 0.9 2.6 0.00 0.00 0.00 66 1014.6
20260503025016 38 172 0.9 2.6 0.00 0.00 0.00 65 1014.7
20260503024516 39 172 0.9 3.5 0.00 0.00 0.00 65 1014.7
20260503024016 39 171 0.9 3.5 0.00 0.00 0.00 63 1014.8
20260503023517 39 170 0.9 3.5 0.00 0.00 0.00 63 1014.8
20260503023016 39 219 0.9 2.6 0.00 0.00 0.00 61 1014.9
20260503022516 40 220 0.9 1.7 0.00 0.00 0.00 61 1014.9
20260503022036 40 219 0.0 1.7 0.00 0.00 0.00 60 1014.9
20260503021516 40 220 0.9 2.6 0.00 0.00 0.00 59 1014.9
20260503021036 41 229 0.9 2.6 0.00 0.00 0.00 57 1015.0
20260503020516 41 239 0.0 1.7 0.00 0.00 0.00 56 1015.0
20260503020016 41 238 0.0 1.7 0.00 0.00 0.00 54 1015.0
20260503015536 41 238 0.0 1.7 0.00 0.00 0.00 54 1014.9
20260503015057 42 239 0.9 2.6 0.00 0.00 0.00 54 1014.9
20260503014517 42 236 0.9 3.5 0.00 0.00 0.00 53 1014.9
20260503014017 42 222 0.9 3.5 0.00 0.00 0.00 52 1014.9
20260503013516 42 208 0.9 2.6 0.00 0.00 0.00 52 1014.8
20260503013056 43 232 1.7 3.5 0.00 0.00 0.00 51 1014.8
20260503012516 43 244 0.9 3.5 0.00 0.00 0.00 49 1014.9
20260503012016 43 239 1.7 2.6 0.00 0.00 0.00 50 1014.8
20260503011517 44 244 1.7 2.6 0.00 0.00 0.00 49 1014.8
20260503011017 44 257 1.7 3.5 0.00 0.00 0.00 47 1014.8
20260503010516 44 258 2.6 3.5 0.00 0.00 0.00 45 1014.8
20260503010016 44 257 2.6 4.3 0.00 0.00 0.00 44 1014.9
20260503005536 45 252 2.6 6.1 0.00 0.00 0.00 44 1014.9
20260503005017 45 257 2.6 6.1 0.00 0.00 0.00 43 1014.9
20260503004516 45 266 2.6 6.1 0.00 0.00 0.00 42 1014.9
20260503004016 46 269 2.6 6.1 0.00 0.00 0.00 41 1014.9
20260503003556 46 266 1.7 6.1 0.00 0.00 0.00 41 1014.9
20260503003016 46 263 3.5 6.1 0.00 0.00 0.00 40 1014.9
20260503002516 47 276 1.7 5.2 0.00 0.00 0.00 39 1014.9
20260503002016 47 287 2.6 7.0 0.00 0.00 0.00 37 1014.9
20260503001517 47 283 4.3 7.0 0.00 0.00 0.00 36 1014.9
20260503001016 47 295 4.3 7.8 0.00 0.00 0.00 36 1014.8
20260503000516 48 318 4.3 7.8 0.00 0.00 0.00 35 1014.9
20260503000016 48 304 3.5 7.8 0.00 0.00 0.00 34 1014.8
20260502235516 48 328 2.6 5.2 0.00 0.00 0.00 34 1014.8
20260502235016 48 332 2.6 9.6 0.00 0.00 0.00 36 1014.7
20260502234516 48 321 5.2 10.4 0.00 0.00 0.00 34 1014.8
20260502234015 48 322 5.2 10.4 0.00 0.00 0.00 34 1014.8
20260502233517 48 303 5.2 10.4 0.00 0.00 0.00 34 1014.8
20260502233016 48 308 6.1 10.4 0.00 0.00 0.00 33 1014.8
20260502232515 48 314 5.2 8.7 0.00 0.00 0.00 33 1014.8
20260502232016 48 348 5.2 11.3 0.00 0.00 0.00 35 1014.9
20260502231517 48 348 5.2 11.3 0.00 0.00 0.00 34 1014.9
20260502231036 48 296 7.0 12.2 0.00 0.00 0.00 32 1014.9
20260502230515 48 287 7.0 14.8 0.00 0.00 0.00 32 1014.9
20260502230015 49 308 7.0 14.8 0.00 0.00 0.00 33 1014.9
20260502225515 49 312 5.2 11.3 0.00 0.00 0.00 33 1015.0
20260502225035 49 319 6.1 11.3 0.00 0.00 0.00 33 1015.0
20260502224516 49 323 4.3 11.3 0.00 0.00 0.00 34 1015.1
20260502224017 48 321 6.1 12.2 0.00 0.00 0.00 32 1015.0
20260502223517 48 309 7.8 12.2 0.00 0.00 0.00 32 1015.1
20260502223015 49 313 7.8 12.2 0.00 0.00 0.00 31 1015.1
20260502222516 49 313 7.0 12.2 0.00 0.00 0.00 33 1015.2
20260502222016 49 341 6.1 12.2 0.00 0.00 0.00 33 1015.2
20260502221535 49 353 4.3 13.0 0.00 0.00 0.00 35 1015.2
20260502221015 48 330 7.8 13.9 0.00 0.00 0.00 34 1015.2
20260502220515 48 313 10.4 13.9 0.00 0.00 0.00 31 1015.1
20260502220036 48 310 7.0 13.0 0.00 0.00 0.00 31 1015.2
20260502215517 48 306 7.0 15.6 0.00 0.00 0.00 31 1015.2
20260502215015 49 345 9.6 15.6 0.00 0.00 0.00 33 1015.3
20260502214516 48 314 8.7 13.9 0.00 0.00 0.00 32 1015.3
20260502214016 48 309 6.1 13.0 0.00 0.00 0.00 32 1015.3
20260502213516 49 326 7.8 13.0 0.00 0.00 0.00 33 1015.3
20260502213015 48 326 7.0 14.8 0.00 0.00 0.00 33 1015.4
20260502212517 48 328 8.7 14.8 0.00 0.00 0.00 34 1015.3
20260502212015 48 295 4.3 13.9 0.00 0.00 0.00 38 1015.3
20260502211515 48 287 7.8 14.8 0.00 0.00 0.00 35 1015.5
20260502211017 48 309 7.8 14.8 0.00 0.00 0.00 36 1015.5
20260502210516 48 315 9.6 15.6 0.00 0.00 0.00 36 1015.5
20260502210015 47 300 8.7 16.5 0.00 0.00 0.00 37 1015.6
20260502205515 48 318 9.6 16.5 0.00 0.00 0.00 35 1015.6
20260502205016 48 318 7.8 13.0 0.00 0.00 0.00 36 1015.5
20260502204516 47 304 8.7 13.9 0.00 0.00 0.00 36 1015.6
20260502204015 48 327 8.7 14.8 0.00 0.00 0.00 37 1015.6
20260502203515 48 283 7.8 15.6 0.00 0.00 0.00 39 1015.7
20260502203015 48 296 8.7 15.6 0.00 0.00 0.00 37 1015.8
20260502202516 47 301 6.1 12.2 0.00 0.00 0.00 41 1015.7